User: anonymous   Login
Location: Unspecified
(0.0000°N, 0.0000°E)
Time: 00:45:54
(UTC+00:00)
Language:

STARLINK-3352 - Orbit

View from above orbital plane
View from above orbital plane
View from above satellite
View from above satellite

Ground track
Ground track

The orbit is defined by the following mean orbital elements,

1 51147U          26145.45987645 +.00000000 +00000-0 +97870-3 0 00001
2 51147  53.1890 301.8161 0002113 168.8925 191.2123 15.30041267    00
Epoch (UTC): 25 May 2026 11:02:13
Eccentricity: 0.0002113
inclination: 53.1890°
perigee height: 474 km
apogee height: 477 km
right ascension of ascending node: 301.8161°
argument of perigee: 168.8925°
revolutions per day: 15.30041267
mean anomaly at epoch: 191.2123°

The dashed part of the orbit path shows where the satellite is in the earth's shadow,  

DLR